IRIDIUM 162 (43482 NORAD) Tracking and Keplerian Element Data

This shows tracking and keplerian element data for the satellite.

Feedback or suggestion? Click here.




ElementValue
Catalog43482
NameIRIDIUM 162
Epoch Orbit35329
Epoch Day35.15929201
Epoch Year2025
RAAN296.4843
Inclination86.449
Eccentricity0.0002048
Argument of Perigee90.0143
Mean Anonmoly270.1292
Mean Motion14.43274132
Decay Rate7.7E-06
L11 43482U 18047G 25035.15929201 .00000770 00000+0 22286-3 0 9991
L22 43482 86.4490 296.4843 0002048 90.0143 270.1292 14.43274132353297



Live tracking and technical data element details for IRIDIUM 162 (NORAD 43482). IRIDIUM 162 can be tracked NOW for your location showing map with azimuth and elevation plus other details from your city location.







IsCatalogInMostPopularTable: catalog: 43482, numindb: 600
Update: records affected: 1



GetName: 43482 IRIDIUM 162

Hit Count: updated at: Thu, 15 May 2025 19:31:01 GMT